FENGYUN 1C DEB, 31980

Orbit data source: Space-Track

FENGYUN 1C DEB, 31980 is space debris in SSO originally from a launch on Mon, 10 May 1999 UTC launched from the Taiyaun Space Center, China (TSC). Fengyun 1C debris stems from the Chinese weather satellite Fengyun-1C, which was intentionally destroyed by a Chinese anti-satellite missile in 2007. This event dramatically increased the amount of space debris, with thousands of trackable fragments posing hazards to satellites and human spaceflight. The Fengyun 1C debris cloud has become a focal point in discussions about space sustainability and the need for international regulations to prevent the creation of new debris.

Loading next visibility...
Identifier
31980, 1999-025CPH
Orbit
SSO
Country
Flag of CNCN / PRC
Related business
Manufacturer
Unknown
Mission
Spacecraft
Bus & Motor
Unknown
Mass
Unknown
Launch date (UTC)
1999-05-10 (27 years ago)
Launch vehicle
Unknown
Launch site
Taiyaun Space Center, China (TSC)
Object type
Payload
Rocket body
Debris
Shape & HBR
Unknown shape, 0.1 m
Radar Cross Section
Small (<0.1 m²)

Expand to show TLE details & history
Last TLE update: 19 hours ago

TLE from 19 hours ago
0 FENGYUN 1C DEB
1 31980U 99025CPH 26253.30271047  .00000312  00000-0  41470-3 0  9993
2 31980  97.5851 273.8660 0428357 135.5261 228.1110 13.32381381932868
Epoch: 2026-09-10T07:15Z
TLE epoch observation values (Epoch: 2026-09-10T07:15:54.184Z)
Latitude
0.00002°
Longitude
175.54787°
Altitude
1,362.959 km
Speed
7.07 km/s
True Right ascension
18h 15m 27s
True Declination
0° 00' 00"
Sunlit
Object was in daylight at epoch
Visualization orbit readout
Latitude
Unknown
Longitude
Unknown
Altitude
Unknown
Speed
Unknown
Apparent Right ascension
Unknown
Apparent Declination
Unknown
Sunlit
N/A
Visualization observer readout
Local Sidereal Time
18:41:15
Azimuth
Unknown
Elevation
Unknown
Doppler factor
Unknown
Orbital elements
Apogee altitude
1,456.846 km
Perigee altitude
813.184 km
Semi-major axis
7,513.152 km
Eccentricity
0.04284
Inclination
97.5851°
RAAN
273.866°
Arg. of periapsis
135.5261°
True anomaly
224.58535°
Mean anomaly
228.111°
Eccentric anomaly
226.33557°
Mean motion
3.3328 °/min
Orbital period
108.02 mins
BSTAR
0.0004147
Loading maneuver chart data...
Computing Atmospheric mass density...

Documentation

Showing up to 5 results
|